Temp
12 12 11 11 10 10 10 9 9 9 9 9 9 8 8 8 8 8 8 8 7 7 7 6 6 5 5 5 5 4 4 4 4 4 3 3 3 3 3 3 3 3 2 2 2 2 1 1 1 1 1 1 1 0 0 0 -0 -0 -0 -1 -1 -1 -1 -1 -1 -1 -1 -1 -1
12 12 11 11 10 10 10 9 9 9 9 9 9 8 8 8 8 8 8 8 7 7 7 6 6 5 5 5 5 4 4 4 4 4 3 3 3 3 3 3 2 2 2 2 2 2 1 1 1 1 0 0 0 0 0 -0 -0 -1 -1 -1 -1 -1 -1 -1 -1 -1 -1 -1 -1
12 12 12 11 11 10 10 9 9 9 9 9 9 8 8 8 8 8 8 8 7 7 7 6 6 6 5 5 5 4 4 4 4 3 3 3 3 3 3 2 2 2 2 2 2 2 1 1 1 0 0 0 0 -0 -0 -0 -1 -1 -1 -1 -1 -1 -2 -2 -2 -2 -2 -2 -2
12 12 12 11 11 11 10 10 9 9 9 9 9 8 8 8 8 8 8 7 7 7 7 6 6 5 5 5 4 4 4 4 3 3 3 3 3 2 2 2 2 2 2 2 2 1 1 1 0 0 0 -0 -0 -0 -0 -1 -1 -1 -1 -1 -1 -2 -2 -2 -2 -2 -2 -2 -2
12 12 12 11 11 11 10 10 10 9 9 9 8 8 8 8 8 7 7 7 7 7 7 6 6 5 5 5 4 4 4 3 3 3 3 3 2 2 2 2 2 2 2 2 1 1 1 1 0 0 -0 -0 -0 -0 -1 -1 -1 -1 -1 -1 -2 -2 -2 -2 -2 -2 -2 -2 -2
12 12 12 11 11 11 11 10 10 9 9 9 8 8 8 8 7 7 7 7 7 7 6 6 6 5 5 5 4 4 3 3 3 3 2 2 2 2 2 2 2 2 1 1 1 1 1 1 0 -0 -0 -1 -1 -1 -1 -1 -1 -2 -2 -2 -2 -2 -2 -2 -2 -2 -2 -2 -3
12 12 12 11 11 11 11 10 10 10 9 9 8 8 8 7 7 7 7 7 7 6 6 6 6 5 5 4 4 4 3 3 3 2 2 2 2 2 2 2 1 1 1 1 1 1 1 0 -0 -0 -1 -1 -1 -1 -1 -1 -2 -2 -2 -2 -2 -2 -2 -2 -2 -3 -3 -3 -3
12 12 12 11 11 11 11 10 10 10 9 9 8 8 8 8 7 7 7 7 6 6 6 6 5 5 5 4 4 4 3 3 3 2 2 2 2 2 1 1 1 1 1 1 1 0 0 -0 -0 -0 -1 -1 -1 -1 -2 -2 -2 -2 -2 -2 -2 -2 -2 -2 -3 -3 -3 -3 -3
12 12 11 11 11 11 11 10 10 10 9 9 9 8 8 8 7 7 7 6 6 6 6 6 5 5 5 4 4 4 3 3 3 2 2 2 1 1 1 1 1 1 1 1 0 0 -0 -0 -1 -1 -1 -1 -1 -2 -2 -2 -2 -2 -2 -2 -2 -2 -3 -3 -3 -3 -3 -3 -3
12 12 11 11 11 11 11 10 10 10 10 9 9 8 8 8 7 7 7 7 6 6 6 5 5 5 5 4 4 4 3 3 3 2 2 2 1 1 1 1 1 1 0 0 0 -0 -0 -1 -1 -1 -1 -1 -1 -2 -2 -2 -2 -2 -2 -2 -3 -3 -3 -3 -3 -3 -3 -3 -3
12 12 11 11 11 11 10 10 10 10 9 9 9 9 8 8 7 7 7 7 6 6 6 5 5 5 5 4 4 4 3 3 3 2 2 2 1 1 1 1 1 1 0 0 -0 -0 -1 -1 -1 -1 -1 -1 -2 -2 -2 -2 -2 -2 -3 -3 -3 -3 -3 -3 -4 -4 -4 -3 -3
12 12 11 11 11 10 10 10 10 10 9 9 9 8 8 8 8 7 7 7 6 6 6 5 5 5 5 4 4 4 3 3 3 2 2 2 1 1 1 1 1 0 0 0 -0 -1 -1 -1 -1 -1 -1 -2 -2 -2 -2 -2 -3 -3 -3 -3 -3 -3 -4 -4 -4 -4 -4 -4 -4
12 11 11 11 11 10 10 10 10 9 9 9 9 8 8 8 7 7 7 7 6 6 6 6 5 5 5 4 4 4 3 3 3 2 2 2 1 1 1 1 0 0 0 -0 -0 -1 -1 -1 -1 -1 -2 -2 -2 -2 -2 -3 -3 -3 -3 -3 -4 -4 -4 -4 -4 -4 -4 -4 -4
11 11 11 11 10 10 10 10 9 9 9 9 8 8 8 8 7 7 7 7 6 6 6 6 5 5 5 4 4 4 3 3 3 2 2 2 1 1 1 0 0 0 0 -0 -0 -1 -1 -1 -1 -2 -2 -2 -2 -2 -3 -3 -3 -3 -3 -4 -4 -4 -4 -4 -4 -4 -4 -4 -4
11 11 11 10 10 10 10 10 9 9 9 8 8 8 8 7 7 7 7 6 6 6 6 5 5 5 4 4 4 4 3 3 3 2 2 2 1 1 1 0 0 0 -0 -0 -1 -1 -1 -1 -1 -2 -2 -2 -2 -2 -3 -3 -3 -3 -3 -4 -4 -4 -4 -4 -4 -4 -4 -4 -4
11 11 10 10 10 10 10 9 9 9 9 8 8 8 7 7 7 7 6 6 6 6 6 5 5 5 4 4 4 3 3 3 2 2 2 1 1 1 1 0 0 -0 -0 -0 -1 -1 -1 -1 -1 -2 -2 -2 -2 -3 -3 -3 -3 -3 -3 -4 -4 -4 -4 -4 -4 -4 -4 -4 -4
10 10 10 10 10 10 9 9 9 9 9 8 8 8 7 7 7 6 6 6 6 6 5 5 5 5 4 4 4 3 3 2 2 2 2 1 1 1 1 0 0 -0 -0 -0 -1 -1 -1 -1 -2 -2 -2 -2 -2 -3 -3 -3 -3 -3 -4 -4 -4 -4 -4 -4 -4 -4 -4 -4 -4
10 10 10 10 10 9 9 9 9 9 9 8 8 8 7 7 7 6 6 6 6 5 5 5 5 4 4 4 3 3 3 2 2 2 1 1 1 1 1 0 0 -0 -0 -0 -1 -1 -1 -1 -2 -2 -2 -2 -3 -3 -3 -3 -3 -4 -4 -4 -4 -4 -4 -4 -4 -4 -4 -4 -5
10 10 10 9 9 9 9 9 9 8 8 8 8 8 7 7 7 6 6 6 5 5 5 5 4 4 4 3 3 3 2 2 2 2 1 1 1 1 0 0 0 -0 -0 -1 -1 -1 -1 -1 -2 -2 -2 -3 -3 -3 -3 -3 -4 -4 -4 -4 -4 -4 -4 -4 -4 -4 -4 -4 -4
9 9 9 9 9 9 9 9 8 8 8 8 7 7 7 7 6 6 6 5 5 5 5 4 4 4 3 3 3 2 2 2 2 1 1 1 1 0 0 0 -0 -0 -0 -1 -1 -1 -1 -2 -2 -2 -2 -3 -3 -3 -3 -4 -4 -4 -4 -4 -4 -4 -4 -4 -4 -4 -4 -4 -4
8 8 8 8 8 8 8 8 8 8 8 7 7 7 7 6 6 6 5 5 5 5 4 4 4 4 3 3 3 2 2 1 1 1 1 1 0 0 0 -0 -0 -0 -1 -1 -1 -1 -2 -2 -2 -2 -3 -3 -3 -3 -4 -4 -4 -4 -4 -4 -4 -5 -5 -5 -5 -5 -5 -4 -5
8 8 8 8 8 8 8 7 7 7 7 7 7 7 6 6 6 5 5 5 5 4 4 4 3 3 3 3 2 2 2 1 1 1 1 0 0 0 -0 -0 -0 -1 -1 -1 -1 -2 -2 -2 -2 -2 -3 -3 -3 -3 -4 -4 -4 -4 -4 -5 -5 -5 -5 -5 -5 -5 -5 -5 -5
9 8 8 8 8 8 7 7 7 7 7 7 6 6 6 6 5 5 5 4 4 4 4 3 3 3 3 3 2 2 2 1 1 1 0 0 -0 -0 -0 -1 -1 -1 -1 -1 -2 -2 -2 -2 -3 -3 -3 -3 -3 -4 -4 -4 -4 -4 -5 -5 -5 -5 -5 -5 -5 -5 -5 -5 -5
9 8 8 8 8 8 7 7 7 7 6 6 6 6 6 5 5 5 5 4 4 4 3 3 3 3 2 2 2 2 1 1 1 0 0 -0 -0 -1 -1 -1 -1 -1 -1 -2 -2 -2 -2 -3 -3 -3 -3 -3 -4 -4 -4 -4 -4 -4 -5 -5 -5 -5 -5 -5 -5 -5 -5 -5 -5
9 8 8 8 8 8 7 7 7 6 6 6 6 6 5 5 5 5 4 4 4 4 3 3 3 3 2 2 2 1 1 1 1 0 -0 -0 -1 -1 -1 -1 -2 -2 -2 -2 -2 -2 -2 -3 -3 -3 -3 -4 -4 -4 -4 -4 -4 -5 -5 -5 -5 -5 -5 -5 -5 -5 -5 -5 -5
9 8 8 8 8 8 7 7 7 7 6 6 6 5 5 5 5 5 4 4 4 4 3 3 3 2 2 2 2 1 1 1 0 0 -0 -1 -1 -1 -1 -2 -2 -2 -2 -2 -2 -2 -3 -3 -3 -3 -4 -4 -4 -4 -4 -5 -5 -5 -5 -5 -5 -5 -5 -5 -5 -5 -5 -5 -5
9 9 8 8 8 8 8 7 7 7 6 6 6 5 5 5 5 4 4 4 4 4 3 3 3 2 2 2 1 1 1 0 0 -0 -0 -1 -1 -1 -2 -2 -2 -2 -2 -2 -2 -2 -2 -2 -3 -3 -4 -4 -4 -4 -5 -5 -5 -5 -5 -5 -5 -5 -5 -5 -5 -6 -6 -6 -5
9 9 8 8 8 8 8 7 7 7 6 6 5 5 5 5 4 4 4 4 4 3 3 3 2 2 2 1 1 1 1 0 0 -0 -1 -1 -1 -1 -2 -2 -2 -2 -2 -3 -3 -2 -2 -2 -2 -2 -3 -4 -4 -4 -5 -5 -5 -5 -5 -5 -5 -5 -5 -5 -5 -5 -6 -6 -6
9 9 8 8 8 8 8 7 7 7 6 6 5 5 5 4 4 4 4 4 4 3 3 3 2 2 1 1 1 1 0 0 -0 -0 -1 -1 -1 -1 -2 -2 -2 -2 -3 -3 -3 -2 -2 -2 -2 -2 -2 -3 -4 -5 -5 -5 -5 -5 -5 -5 -5 -5 -5 -5 -5 -5 -5 -6 -6
9 9 8 8 8 8 8 7 7 7 6 6 5 5 4 4 4 4 4 4 3 3 3 3 2 2 1 1 1 0 0 0 -0 -0 -1 -1 -1 -2 -2 -2 -2 -2 -3 -3 -3 -2 -2 -2 -2 -1 -2 -2 -4 -5 -5 -5 -5 -5 -5 -5 -5 -5 -5 -5 -5 -5 -5 -5 -6
9 9 9 8 8 8 8 8 7 7 6 6 5 5 4 4 4 4 4 4 3 3 3 3 2 2 1 1 1 0 0 -0 -0 -1 -1 -1 -2 -2 -2 -2 -2 -3 -3 -3 -3 -2 -2 -2 -2 -1 -1 -2 -3 -4 -5 -5 -5 -5 -5 -5 -5 -5 -5 -5 -5 -5 -5 -5 -5
9 9 9 8 8 8 8 8 7 7 6 6 5 5 4 4 4 4 4 4 3 3 3 2 2 2 1 1 1 0 -0 -0 -1 -1 -1 -1 -2 -2 -2 -2 -3 -3 -3 -3 -3 -2 -2 -2 -2 -1 -1 -1 -2 -3 -4 -5 -5 -5 -5 -5 -5 -5 -5 -6 -5 -5 -5 -5 -5
9 9 9 8 8 8 8 8 7 7 6 6 5 5 5 4 4 4 4 3 3 3 3 2 2 2 1 1 0 0 -0 -0 -1 -1 -1 -2 -2 -2 -2 -2 -3 -3 -3 -3 -3 -2 -2 -2 -2 -1 -1 -1 -1 -2 -4 -5 -5 -5 -5 -5 -5 -5 -5 -6 -5 -5 -5 -5 -5
9 9 9 9 8 8 8 8 7 7 6 6 6 5 5 5 4 4 4 3 3 3 3 2 2 2 1 1 0 0 -0 -1 -1 -1 -1 -2 -2 -2 -2 -3 -3 -3 -3 -3 -3 -2 -2 -2 -2 -1 -1 -1 -1 -2 -3 -4 -5 -5 -5 -5 -5 -5 -5 -6 -6 -6 -6 -6 -6
9 9 9 9 8 8 8 8 7 7 7 6 6 5 5 5 4 4 4 4 3 3 2 2 2 1 1 1 0 0 -0 -1 -1 -1 -2 -2 -2 -2 -3 -3 -3 -3 -3 -3 -3 -2 -2 -2 -2 -2 -1 -1 -1 -1 -2 -3 -4 -5 -5 -5 -5 -5 -5 -5 -6 -6 -6 -6 -6
9 9 9 8 8 8 8 7 7 7 7 6 6 6 5 5 5 4 4 4 3 3 2 2 2 1 1 0 0 -0 -0 -1 -1 -1 -1 -2 -2 -2 -3 -3 -3 -3 -3 -3 -3 -2 -2 -2 -2 -2 -1 -1 -1 -2 -2 -3 -4 -5 -5 -5 -5 -5 -5 -5 -5 -6 -6 -6 -6
9 9 9 8 8 8 8 7 7 7 6 6 6 6 6 5 5 5 4 4 3 3 2 2 1 1 1 0 0 -0 -0 -1 -1 -1 -1 -2 -2 -2 -2 -3 -3 -3 -3 -3 -2 -2 -2 -2 -2 -2 -1 -1 -2 -2 -2 -3 -4 -4 -5 -5 -5 -5 -5 -5 -5 -5 -6 -6 -6
9 9 9 8 8 8 7 7 7 7 6 6 6 6 6 5 5 5 4 4 3 3 2 2 1 1 1 0 0 -0 -0 -1 -1 -1 -1 -1 -2 -2 -2 -3 -3 -3 -3 -3 -3 -2 -2 -2 -2 -1 -1 -2 -2 -2 -2 -2 -3 -4 -4 -5 -5 -5 -5 -5 -5 -5 -5 -5 -5
9 9 8 8 8 8 7 7 7 7 6 6 6 6 6 5 5 5 5 4 3 3 2 2 2 1 1 1 0 -0 -0 -1 -1 -1 -1 -1 -2 -2 -2 -2 -3 -3 -3 -3 -3 -2 -2 -2 -2 -1 -1 -1 -2 -2 -2 -2 -3 -3 -4 -4 -4 -5 -5 -5 -5 -5 -5 -5 -5
9 9 8 8 8 7 7 7 7 7 6 6 6 6 6 5 5 5 5 4 4 3 3 2 2 1 1 1 0 -0 -0 -1 -1 -1 -1 -1 -1 -2 -2 -2 -2 -3 -3 -3 -3 -2 -2 -2 -2 -1 -1 -1 -2 -2 -2 -2 -2 -3 -4 -4 -4 -4 -4 -5 -5 -5 -5 -5 -5
9 8 8 8 8 7 7 7 7 6 6 6 6 6 5 5 5 5 5 4 4 3 3 2 2 1 1 1 0 -0 -0 -1 -1 -1 -1 -1 -1 -1 -1 -2 -2 -2 -2 -3 -3 -2 -2 -2 -2 -1 -1 -1 -2 -2 -2 -2 -2 -3 -3 -4 -4 -4 -4 -4 -4 -4 -4 -4 -5
Height
763 763 763 763 763 763 763 764 764 765 765 765 765 766 766 766 766 766 766 766 766 766 765 765 764 764 764 765 765 765 766 766 766 767 767 768 769 769 770 771 772 773 774 774 775 776 777 778 779 780 780 781 781 782 782 783 783 784 784 784 785 786 786 787 787 788 788 789 789
761 761 761 761 761 761 761 762 762 762 763 763 763 763 764 764 764 764 764 764 764 764 763 763 762 762 762 762 762 763 763 764 764 765 766 766 767 768 769 770 770 771 772 772 773 774 774 775 776 777 778 779 780 780 781 781 781 781 782 782 783 784 785 786 786 786 787 787 788
759 760 760 760 760 759 760 760 760 760 761 761 761 761 762 762 762 762 762 762 762 762 761 761 761 761 760 760 761 761 761 762 762 763 764 764 765 766 767 768 769 770 770 771 771 772 772 773 774 775 776 776 777 778 778 779 779 780 780 781 782 783 784 784 784 785 786 786 786
758 758 758 758 758 757 757 757 758 758 758 759 759 760 760 760 760 760 760 760 760 760 760 759 759 759 759 759 759 759 760 760 761 761 762 762 763 764 765 766 767 768 768 769 770 770 770 771 772 772 773 773 774 775 776 777 777 778 779 779 781 781 782 782 782 783 784 784 785
756 756 756 756 756 756 756 756 756 756 756 757 757 757 757 757 758 758 758 758 758 758 758 758 758 757 757 757 757 757 758 759 759 760 760 761 761 762 763 764 765 766 766 767 767 768 768 769 770 770 770 771 771 772 773 774 776 776 777 778 779 780 780 780 781 781 781 782 782
754 755 755 755 755 755 755 754 754 754 755 755 755 755 755 755 756 756 756 756 756 756 756 756 756 756 756 756 756 756 756 757 757 758 759 759 760 761 761 762 763 764 764 765 765 766 766 767 767 768 768 769 769 770 771 772 773 774 775 776 777 777 778 778 778 778 779 780 780
753 753 753 753 753 753 753 753 753 753 753 753 753 753 752 753 753 753 753 753 754 754 754 754 754 754 754 754 754 754 755 755 756 756 756 757 758 759 759 760 761 761 762 762 763 764 764 765 766 766 766 766 767 767 768 769 771 771 772 773 774 775 775 775 776 776 776 777 778
752 752 752 752 752 752 752 752 752 752 752 751 751 751 751 751 751 751 751 751 751 752 752 752 752 752 752 752 752 752 752 753 753 754 755 755 756 756 757 758 759 760 760 761 761 762 762 763 763 763 763 764 764 765 765 766 767 768 769 770 771 772 772 772 773 773 774 775 775
751 751 751 751 751 751 751 751 751 750 750 749 749 749 749 749 749 749 749 749 749 749 750 750 750 750 750 750 750 750 750 751 751 751 752 753 754 754 755 756 757 758 758 759 759 760 761 761 761 761 761 761 762 762 763 764 765 765 766 767 768 769 770 770 771 771 771 772 773
750 750 750 750 750 750 750 749 749 749 748 748 747 747 747 747 747 747 747 747 747 747 747 747 747 747 747 747 747 748 748 748 749 749 750 751 751 752 753 754 755 755 756 756 757 758 759 759 759 759 760 760 760 761 761 762 763 764 764 765 766 767 768 768 769 770 770 771 771
750 749 749 749 749 748 748 748 747 747 746 746 746 746 745 745 745 745 745 745 745 745 745 745 745 745 745 745 745 745 746 746 746 747 747 748 748 749 750 751 752 753 753 754 755 756 756 757 757 757 757 758 759 759 760 761 761 762 763 764 765 766 766 767 767 768 769 769 770
749 749 748 748 748 747 747 746 746 745 745 744 744 743 743 743 743 743 743 743 743 742 742 742 742 742 742 742 742 743 743 743 744 744 745 745 745 746 747 748 749 750 751 751 752 753 754 754 754 754 755 755 756 756 757 758 759 760 761 762 763 764 764 765 766 766 767 768 769
749 748 747 747 746 746 746 745 744 743 743 742 741 741 741 741 741 741 741 741 741 740 740 740 740 740 740 740 740 740 741 741 741 741 741 742 742 743 744 744 745 746 747 748 749 750 750 750 751 751 752 752 753 754 754 755 756 758 759 760 761 761 762 763 763 764 765 766 766
747 747 746 746 745 745 744 743 742 742 741 740 740 739 739 739 739 739 739 739 738 738 738 738 738 737 737 737 737 737 738 738 738 738 739 739 739 740 740 741 742 743 744 745 746 746 747 747 747 748 749 750 750 751 751 752 754 755 756 757 758 759 759 760 761 762 763 764 764
746 745 745 744 743 743 742 741 741 740 739 738 738 737 737 737 737 737 737 736 736 736 736 736 735 735 735 735 735 735 735 735 736 736 736 736 736 737 737 738 739 740 741 742 743 743 744 744 745 745 746 747 748 748 749 750 751 751 752 753 754 755 756 757 758 759 760 761 761
745 744 743 743 742 741 740 739 739 738 737 736 736 735 735 735 734 734 734 734 734 734 733 733 733 732 732 732 732 732 733 733 733 733 733 733 733 734 734 735 736 736 738 739 740 741 741 741 742 743 744 745 745 746 746 747 748 749 749 750 751 752 754 755 756 756 757 758 759
745 743 742 741 741 740 739 738 737 736 735 734 734 733 733 732 732 732 731 731 731 731 731 731 730 730 730 730 730 730 730 730 730 730 730 730 731 731 731 732 732 733 735 736 736 737 738 739 740 741 741 742 743 744 744 745 745 746 747 748 749 750 751 752 753 754 755 756 756
745 744 742 741 740 739 738 737 736 735 734 733 732 731 731 730 730 730 729 729 729 729 728 728 728 728 728 728 728 728 728 728 727 727 727 728 728 729 729 729 730 731 731 732 733 734 735 736 737 738 739 740 741 741 742 742 743 744 745 746 747 748 749 750 751 752 753 754 754
745 744 743 742 741 739 738 737 736 734 733 732 731 730 730 729 728 728 727 727 726 726 726 726 726 726 726 726 726 726 726 725 725 725 725 726 726 726 726 727 727 728 729 729 730 731 732 733 734 736 736 737 738 739 740 740 741 742 742 744 745 746 746 747 748 749 750 751 751
744 743 742 741 741 739 738 737 736 734 733 732 731 730 729 728 727 726 726 725 725 725 724 724 724 724 724 724 724 724 723 723 723 723 723 724 724 724 724 725 726 726 726 727 727 728 730 731 732 733 734 735 736 736 737 738 739 740 741 741 742 743 744 745 746 747 748 748 749
743 742 741 740 739 738 737 736 735 734 733 731 730 729 728 727 726 725 724 724 723 723 723 722 722 721 721 722 722 721 721 721 721 721 721 722 722 722 722 723 723 724 724 724 725 726 727 728 729 730 731 732 733 734 735 736 736 737 738 739 740 741 742 743 744 745 746 746 747
741 740 739 738 737 736 736 735 734 733 731 730 729 728 727 726 725 724 723 723 722 722 721 721 720 720 720 720 719 719 719 720 720 720 720 720 720 720 721 721 721 721 721 722 722 723 724 726 727 728 729 730 730 731 732 733 734 735 736 736 737 738 739 740 741 742 743 744 745
740 738 737 736 735 734 733 732 731 731 730 729 728 726 726 725 724 723 722 721 721 720 719 719 718 718 718 717 717 717 717 717 717 717 717 718 718 718 719 719 719 719 719 719 720 721 722 723 724 725 726 727 728 728 729 730 731 732 733 734 735 736 737 738 739 740 740 741 742
738 737 736 735 733 732 731 730 730 729 728 727 726 725 724 723 722 721 721 720 719 718 717 717 716 716 716 716 716 716 716 715 715 715 716 716 716 716 716 716 716 716 716 716 717 718 719 720 721 722 723 724 725 726 727 728 729 729 730 731 732 733 734 735 736 737 737 738 739
736 735 734 733 731 731 729 728 727 726 726 725 724 723 722 721 720 719 718 717 716 716 715 715 715 714 714 714 714 714 713 713 713 713 713 713 714 714 714 714 714 714 714 714 715 716 717 718 719 720 721 721 722 723 724 725 726 726 727 729 730 731 731 732 733 734 735 735 736
734 733 732 731 730 729 727 726 726 724 723 722 722 721 720 719 719 718 716 716 714 714 713 712 712 712 712 712 711 711 711 711 711 711 711 711 711 712 712 712 711 711 711 712 713 714 715 716 716 717 718 719 720 721 721 722 723 724 725 726 727 728 729 730 731 731 732 733 733
732 731 730 729 727 726 725 724 723 722 721 720 719 719 718 717 716 716 715 714 712 712 711 711 710 710 710 710 709 709 709 709 709 709 709 709 709 709 709 709 709 709 709 710 711 712 713 714 715 715 715 716 716 717 718 719 720 721 722 723 724 725 726 727 727 729 730 731 731
730 729 728 726 725 724 723 722 721 720 719 718 717 716 715 715 714 713 713 711 711 710 709 709 708 708 708 707 707 706 706 706 706 706 707 707 707 707 707 707 707 706 707 708 709 710 711 712 712 713 713 713 714 715 716 716 718 719 720 721 721 722 723 724 725 726 727 728 729
728 727 726 725 723 722 721 720 719 718 716 716 715 714 713 712 712 711 710 710 709 708 707 707 706 706 706 705 704 704 704 704 704 705 705 705 705 705 705 705 705 704 705 706 707 708 709 709 710 710 711 711 711 712 713 714 715 716 717 718 719 719 720 721 722 724 725 726 727
726 725 724 723 721 720 718 717 716 715 714 713 712 711 711 710 709 709 708 707 706 706 705 705 705 704 703 702 702 702 702 702 702 702 702 702 702 702 702 702 702 702 703 704 705 706 706 707 707 708 708 709 709 709 710 711 713 714 714 715 716 716 717 718 720 721 722 723 724
725 723 722 721 719 718 716 715 714 713 712 711 710 709 708 707 707 706 705 705 704 703 703 703 703 702 701 700 700 700 700 700 700 700 700 700 700 700 700 700 700 700 701 702 703 704 704 705 705 705 706 706 707 707 707 708 710 711 711 712 713 714 715 716 717 718 719 720 721
723 721 720 719 717 716 715 713 712 711 710 709 708 707 706 705 704 703 703 702 702 701 701 701 700 699 699 699 698 698 698 698 698 698 698 698 698 698 698 698 698 698 699 700 701 701 702 702 702 703 703 704 705 704 704 705 707 708 709 709 710 711 712 713 714 715 716 717 719
721 720 719 717 716 714 713 712 711 709 708 707 706 705 704 702 701 701 701 700 700 699 699 698 698 697 697 696 696 696 696 696 696 696 696 696 696 696 696 696 696 696 697 698 699 699 699 700 700 701 701 701 702 702 702 702 704 705 706 707 708 709 710 711 711 712 714 715 716
719 718 717 716 714 713 711 710 709 708 706 705 704 702 701 700 699 698 698 697 697 696 696 696 695 695 694 694 694 694 694 694 694 694 694 694 694 694 694 694 694 694 695 696 696 697 697 697 698 698 699 699 700 700 700 700 701 702 703 704 705 706 707 708 709 710 711 712 714
718 716 715 714 712 711 710 708 707 706 705 703 701 700 699 698 697 696 696 695 695 694 693 693 693 692 692 692 692 692 692 692 691 691 692 692 692 692 691 691 691 692 693 694 694 694 695 695 696 696 696 697 698 698 698 697 698 699 700 701 702 704 705 706 707 708 709 710 711
716 715 714 712 711 709 708 706 705 704 703 701 700 698 697 696 695 694 693 693 692 692 691 691 691 690 690 690 690 690 690 690 690 690 690 690 690 690 689 689 689 690 691 691 692 692 692 693 693 694 694 695 696 696 695 695 695 696 697 699 700 701 702 704 705 706 707 708 709
715 713 712 710 709 707 706 705 703 702 701 699 698 696 695 694 693 692 691 691 690 689 688 688 688 688 687 687 687 687 687 687 688 688 688 688 688 687 687 686 686 687 688 689 690 690 690 691 691 691 692 693 693 693 693 693 693 693 695 696 697 699 700 701 702 703 704 705 706
712 711 710 708 706 705 704 702 701 700 698 697 696 695 694 692 691 690 689 689 688 687 686 686 685 685 685 685 685 685 685 685 686 686 686 686 686 685 685 685 685 685 686 687 688 688 688 688 689 689 690 690 690 691 691 691 691 691 692 694 695 696 698 699 700 701 702 702 703
711 709 708 706 705 703 702 701 699 698 696 695 694 692 691 691 689 688 687 686 686 685 684 683 682 682 682 683 683 683 683 683 683 683 683 683 683 683 683 683 682 683 684 685 686 686 686 686 686 687 687 687 688 688 688 688 688 689 690 691 693 694 695 697 698 699 699 700 701
708 707 706 704 703 701 700 698 697 696 695 693 692 691 690 689 687 686 685 684 683 682 681 681 680 680 680 681 681 681 681 681 681 681 681 681 681 681 681 681 681 681 681 683 683 684 684 685 685 685 685 685 686 686 686 686 686 687 688 689 690 692 693 694 695 696 696 697 698
706 705 704 702 701 699 698 696 695 694 692 691 690 689 688 686 686 684 683 682 681 680 679 679 678 678 678 678 678 678 678 678 678 679 679 679 679 679 680 679 679 679 679 680 681 682 682 682 683 683 683 683 684 684 684 684 684 684 685 686 687 689 690 691 693 693 694 695 696
Wind_Speed
28 28 28 28 28 28 28 27 27 26 26 26 26 26 26 25 25 25 25 25 26 27 28 29 30 31 32 33 34 35 37 38 39 40 40 40 40 41 40 40 39 38 37 37 35 34 34 34 33 33 32 32 32 31 31 31 30 30 29 29 29 29 29 29 30 29 29 28 27
27 27 27 27 27 27 27 27 26 26 26 26 26 26 26 26 26 26 26 26 26 27 28 29 30 31 31 32 34 35 36 37 39 39 40 40 40 40 40 40 39 39 38 37 36 35 34 34 33 33 32 31 31 31 30 30 30 30 29 30 29 28 28 29 29 29 30 29 28
26 26 26 26 26 26 26 26 26 26 26 26 26 26 26 26 26 27 27 27 27 27 27 28 29 30 31 32 33 34 35 37 38 39 39 39 39 39 39 39 39 39 38 37 37 35 34 34 33 33 32 31 31 31 30 30 30 30 29 30 29 28 28 28 28 29 29 28 28
25 25 25 25 25 26 26 26 26 26 26 26 26 26 26 27 27 27 27 27 27 27 28 28 29 29 30 31 32 33 34 35 36 38 38 39 38 38 38 39 38 38 38 37 37 37 36 35 33 33 32 32 32 32 31 29 29 29 29 30 29 28 28 28 28 28 28 28 28
24 24 24 25 25 25 26 26 26 26 26 26 26 26 27 27 27 27 27 27 28 28 28 29 29 29 29 30 31 32 33 34 35 36 37 38 38 37 37 38 38 38 38 38 38 38 37 35 34 33 32 32 33 33 32 30 29 29 29 29 29 29 28 28 28 28 29 28 28
22 23 23 24 24 25 25 25 26 26 25 25 26 26 27 27 27 27 28 28 29 29 29 28 28 29 29 29 30 31 32 33 34 35 36 36 37 37 37 37 37 38 38 38 38 38 38 36 34 32 32 32 32 33 32 30 30 29 29 29 29 29 29 28 28 28 29 29 28
21 21 21 22 23 24 24 25 25 25 25 25 25 26 27 27 27 28 29 29 29 29 28 28 28 28 28 29 29 30 31 32 33 34 35 35 36 36 36 36 37 37 37 37 38 38 38 37 34 32 31 30 31 32 32 31 31 31 31 30 30 30 29 30 29 28 29 29 30
19 19 20 20 21 22 23 24 24 24 25 25 26 27 27 27 27 28 28 29 28 28 28 28 29 29 29 29 29 30 30 31 32 33 34 34 35 35 35 35 36 36 37 37 37 37 37 36 35 33 32 30 30 30 32 33 33 33 33 33 31 30 30 31 30 29 29 30 31
18 18 19 19 20 21 22 22 23 24 25 26 27 27 27 27 27 27 28 28 28 28 28 29 29 29 29 29 29 30 30 31 31 32 33 33 34 34 34 34 34 35 36 36 37 37 37 36 35 34 32 31 30 30 31 33 34 35 35 34 32 30 30 30 29 29 30 31 32
17 18 19 19 20 20 21 22 23 24 25 26 27 27 27 27 27 27 27 28 28 28 28 29 29 29 29 29 30 30 30 31 31 31 32 33 33 33 34 33 34 34 35 35 36 36 36 35 34 34 33 31 30 30 30 32 34 35 34 33 31 29 29 29 29 29 29 30 31
17 18 18 19 19 20 21 22 23 24 25 26 27 28 27 27 27 27 27 27 27 28 28 29 29 29 29 30 30 30 31 31 31 31 31 32 33 33 34 34 34 34 34 35 35 35 35 35 34 34 33 32 30 30 30 32 33 34 34 32 30 29 29 28 29 29 29 29 30
16 17 18 18 19 20 21 22 23 24 25 26 27 28 28 28 28 28 27 27 27 28 29 29 29 29 30 30 31 31 31 31 31 31 31 32 33 33 34 34 35 35 35 35 35 35 35 35 35 35 34 33 31 30 30 31 33 34 33 31 30 29 29 29 29 29 29 29 29
16 17 18 18 19 20 21 22 23 24 25 26 27 28 28 29 29 28 28 28 28 29 29 29 29 30 30 31 31 31 31 31 31 31 32 32 33 33 34 35 35 35 36 36 36 36 36 36 36 36 35 34 32 31 31 32 33 34 33 32 31 30 31 31 31 31 30 29 30
16 17 18 19 19 20 21 22 23 25 25 26 27 28 28 28 28 28 28 29 29 30 30 29 30 30 31 31 31 31 31 32 32 32 32 32 33 33 34 34 35 36 36 36 36 36 37 37 37 37 37 36 34 33 33 33 34 35 35 34 33 32 33 33 33 32 31 31 31
17 17 18 19 19 20 21 23 24 25 26 27 27 28 28 28 28 28 28 29 30 30 30 30 30 31 31 32 32 32 32 32 32 32 33 33 33 33 33 34 35 35 36 36 36 37 38 38 38 38 38 37 36 35 34 35 36 37 37 37 37 36 35 35 34 34 33 33 32
17 18 18 19 20 20 22 23 24 25 26 27 27 27 27 28 28 28 28 29 29 30 30 30 31 31 32 32 32 32 32 32 32 33 33 33 33 33 33 33 34 35 36 36 37 37 38 39 39 38 38 38 37 36 36 36 37 38 39 40 40 39 38 37 35 35 34 34 33
18 18 19 19 20 21 22 23 24 25 26 27 27 27 27 28 28 28 28 28 29 29 30 31 31 31 32 32 32 32 31 32 32 33 33 33 33 33 33 33 34 35 35 36 37 38 38 38 39 38 38 38 38 38 37 37 38 39 40 40 40 40 39 37 36 35 35 34 34
19 19 20 20 21 22 23 23 24 25 26 27 27 28 28 28 27 27 28 28 29 29 30 31 31 31 32 32 32 32 32 32 33 33 33 33 33 33 33 34 34 34 35 36 38 38 39 39 38 38 38 38 38 38 38 38 39 39 39 40 40 40 39 38 36 35 35 34 34
20 21 21 21 22 22 23 24 25 25 26 27 28 28 28 28 28 28 28 29 29 29 30 30 31 31 31 31 31 31 32 32 33 33 33 33 33 33 33 34 34 34 35 36 37 38 39 39 39 38 38 38 38 38 38 38 38 38 39 39 39 39 39 38 37 36 36 35 35
22 22 22 22 22 23 24 24 25 26 26 27 27 28 28 28 28 29 29 29 29 29 29 30 30 30 30 31 31 31 31 31 32 33 33 33 33 33 33 33 34 34 35 36 37 38 38 38 38 38 38 38 38 38 38 38 38 38 38 38 38 38 38 38 38 37 37 36 36
23 22 22 21 22 22 23 24 25 26 26 27 27 28 28 28 29 29 29 30 29 29 29 30 30 30 30 30 30 31 31 31 31 32 32 33 33 33 33 33 33 34 35 36 37 37 38 38 38 38 38 38 38 38 38 37 37 37 37 37 37 37 38 38 38 38 37 37 36
23 23 22 22 21 21 21 23 24 25 26 27 27 28 28 28 29 29 29 29 29 29 29 29 30 30 31 31 31 31 31 31 31 31 32 32 33 33 33 33 34 34 35 35 36 37 37 37 37 37 38 38 38 39 39 38 37 37 36 36 36 37 37 37 38 38 38 37 37
23 23 23 23 22 22 21 21 22 23 25 26 27 27 28 28 28 29 29 28 29 29 29 29 30 30 30 31 31 31 31 31 31 31 31 32 32 32 33 33 33 34 35 35 36 36 36 37 37 37 37 38 38 39 39 38 38 37 36 36 36 36 36 37 37 38 38 38 38
22 22 23 23 23 23 23 22 22 22 23 24 26 26 27 27 28 28 28 28 28 29 29 29 29 29 30 30 30 31 31 31 31 31 31 31 31 31 32 32 33 34 35 36 36 36 36 36 36 37 37 37 38 38 38 38 38 37 36 36 35 35 35 36 37 37 38 38 38
22 22 22 23 23 23 23 23 23 23 23 23 24 25 26 27 27 27 27 27 28 28 29 29 29 29 29 29 30 30 30 31 31 31 30 30 30 31 31 31 32 33 35 35 35 35 35 35 35 36 36 37 37 37 37 37 37 37 36 36 35 35 34 35 36 37 37 38 38
22 22 23 23 23 24 24 24 24 24 24 24 24 24 25 26 26 27 27 27 28 28 28 29 29 29 29 29 29 29 30 30 30 31 30 30 30 30 31 31 32 33 34 34 33 32 32 32 33 34 35 36 36 36 36 36 37 37 36 36 35 34 34 33 34 35 36 37 38
22 23 23 23 24 24 25 25 25 25 25 24 24 24 24 25 25 26 27 27 28 28 28 28 28 28 28 28 28 29 29 29 30 30 31 31 30 30 31 31 32 33 33 33 32 31 31 31 31 32 33 35 36 35 35 35 35 36 36 35 34 34 33 33 33 33 34 35 36
23 23 24 24 25 26 26 26 26 25 25 25 25 24 24 24 24 25 26 27 27 27 27 27 27 27 27 27 28 28 29 29 29 30 30 31 31 31 31 31 31 33 33 32 31 30 31 31 32 32 32 33 35 35 35 34 34 34 34 34 34 33 33 33 32 32 32 32 33
23 23 24 25 26 27 27 27 27 26 26 25 25 24 24 24 24 25 26 27 27 27 27 27 27 26 26 27 27 28 28 29 29 29 29 30 31 31 32 32 31 32 32 31 30 30 30 31 32 32 32 32 33 33 33 32 31 31 31 32 32 32 32 32 32 31 30 30 31
23 23 24 25 26 27 28 28 28 27 27 26 25 24 24 24 24 25 25 26 27 27 27 27 26 26 26 27 27 27 28 28 28 29 29 29 30 31 31 31 31 31 30 29 29 29 30 31 32 32 33 33 32 32 31 31 30 30 30 30 31 31 32 31 31 31 30 30 30
23 23 24 25 27 28 29 29 29 28 27 26 25 25 24 24 25 25 25 26 26 27 27 26 26 26 27 27 27 27 27 28 28 28 29 30 30 30 31 31 31 31 30 29 28 29 30 31 31 32 33 34 32 31 31 31 30 29 29 29 30 30 31 31 31 31 31 30 30
23 23 24 25 26 28 29 30 29 29 28 27 26 25 25 25 26 26 26 25 25 25 25 25 26 27 27 27 27 27 27 27 28 28 29 29 30 30 30 30 31 31 30 29 29 29 30 30 31 32 33 34 34 32 31 31 31 30 30 29 30 31 31 31 32 31 31 31 30
22 23 24 25 26 28 29 29 29 29 28 27 26 26 26 27 27 26 26 25 24 24 25 25 26 26 27 27 27 27 27 27 27 28 28 29 29 29 30 30 30 30 29 28 29 29 30 30 31 32 32 33 34 33 32 31 31 30 29 29 30 31 31 32 31 31 31 31 30
22 23 24 25 26 27 28 28 28 28 28 27 27 27 27 27 27 27 26 25 24 24 24 25 26 26 27 27 27 27 27 26 27 27 27 28 28 29 29 29 29 28 28 28 28 29 30 30 31 31 32 33 33 33 32 32 31 30 29 29 30 30 31 32 32 32 31 31 30
22 23 24 25 26 26 27 27 27 27 27 27 27 27 27 27 27 27 27 26 25 24 24 25 25 25 26 26 26 26 27 26 26 26 27 27 28 28 29 29 29 28 27 27 28 29 29 30 31 31 31 32 31 31 31 32 31 31 30 30 30 30 30 31 32 32 32 31 30
23 23 24 25 26 26 26 26 26 26 26 26 27 27 28 27 27 27 26 25 24 24 24 24 24 24 25 25 26 26 27 27 27 27 27 27 27 28 29 29 29 28 27 27 27 28 29 30 30 31 31 31 31 30 30 30 30 31 31 31 30 30 30 30 31 31 31 31 31
24 24 25 25 26 26 26 26 26 26 26 26 26 27 27 27 27 26 25 24 23 23 23 24 24 24 25 25 26 26 27 27 27 27 27 27 27 27 28 28 29 29 28 27 27 28 29 29 30 30 31 31 31 29 28 28 28 29 30 30 30 30 30 29 29 30 31 32 32
24 24 25 25 25 26 26 25 25 25 25 26 26 26 26 26 25 25 24 23 23 23 24 24 24 25 25 26 26 26 26 26 26 27 27 27 27 27 27 28 28 28 28 27 27 28 28 29 30 30 30 31 30 29 26 25 26 28 28 28 28 29 29 28 27 28 30 32 32
25 25 25 25 25 25 26 25 25 25 25 26 26 26 25 25 24 24 23 23 23 23 24 24 25 25 25 25 25 25 26 26 26 27 27 27 27 27 27 27 28 28 27 27 27 28 28 29 29 30 31 31 30 28 26 25 25 26 27 27 26 27 27 27 26 26 28 31 31
25 25 25 25 25 25 25 25 25 25 25 25 25 25 25 25 25 24 24 23 22 23 23 24 24 24 24 24 24 24 25 26 26 26 27 27 27 27 27 27 27 27 27 27 27 27 28 29 29 30 30 31 30 28 26 24 24 25 26 26 25 25 25 25 25 25 26 28 30
26 26 26 25 25 25 25 25 25 26 25 25 25 25 25 25 24 24 23 23 22 23 23 23 24 24 23 23 23 24 24 25 26 26 27 27 27 26 26 26 27 27 27 26 27 27 28 29 29 30 30 31 30 29 26 23 22 23 25 26 25 24 23 24 24 24 25 27 28
Wind_Direction
241 240 239 238 237 237 237 238 239 239 239 239 238 238 237 236 236 236 236 235 234 232 231 231 231 231 230 229 227 225 224 224 223 223 223 223 224 224 224 224 223 223 223 222 222 221 219 217 216 216 216 216 216 215 215 214 212 210 209 209 209 209 208 207 206 204 203 202 202
242 242 241 240 239 238 238 239 239 239 239 239 239 239 238 237 236 236 236 236 235 235 234 234 234 233 232 231 231 229 227 226 225 225 224 224 225 225 225 224 224 224 223 222 221 219 218 216 215 214 215 215 215 215 215 214 212 210 209 209 209 208 207 207 206 204 203 203 202
243 243 242 241 240 238 237 237 238 238 239 239 240 239 238 237 237 237 237 237 237 237 236 235 235 235 235 234 233 232 230 229 227 226 226 225 226 225 225 225 224 224 223 223 221 219 218 216 214 213 214 215 215 215 215 214 213 211 210 210 209 207 207 206 206 204 203 203 202
244 243 243 242 241 240 239 238 238 238 239 239 240 239 239 238 237 237 238 238 238 237 236 236 236 236 236 236 235 233 232 231 230 228 227 227 226 226 225 225 225 224 224 223 222 220 218 216 214 214 214 215 215 215 214 214 212 211 210 210 209 207 206 206 205 204 203 203 202
247 245 244 244 243 243 242 241 240 240 240 240 240 239 239 238 238 237 237 237 237 237 237 237 237 237 237 237 236 235 234 232 231 229 229 228 227 227 226 225 225 224 224 223 222 221 219 217 215 215 215 216 216 216 215 213 212 211 210 210 209 208 207 206 205 203 202 202 202
250 248 247 246 246 245 245 244 243 242 242 241 240 238 238 238 237 237 237 237 238 239 239 239 238 237 237 237 237 236 235 233 231 230 229 228 228 227 226 226 225 225 224 223 222 221 219 217 215 215 216 216 216 216 215 213 211 210 210 209 209 208 207 206 205 203 202 201 202
254 252 250 249 248 247 246 245 244 243 242 241 239 238 238 238 238 237 238 239 239 239 239 238 237 237 236 236 236 235 234 233 232 230 229 229 228 228 227 226 225 225 224 223 222 221 219 217 216 216 216 216 216 216 215 213 211 210 209 208 208 208 207 206 204 202 201 201 203
256 254 253 252 250 249 248 247 245 243 241 240 239 239 240 240 239 239 240 240 239 239 238 238 237 237 236 236 236 235 234 233 232 231 230 229 229 228 227 226 225 224 224 223 222 220 218 217 216 216 216 216 216 215 214 212 210 209 208 208 208 207 207 206 204 202 201 202 204
256 255 254 253 252 251 251 250 247 244 242 240 240 241 241 241 241 241 240 239 239 239 239 238 238 237 237 236 236 235 234 233 232 231 230 229 228 228 227 226 225 224 224 223 222 220 219 217 217 218 217 217 217 216 214 212 210 209 208 208 207 207 206 205 204 202 202 204 206
259 257 256 255 253 252 252 251 249 247 244 243 242 242 242 242 242 242 241 241 241 240 239 238 237 237 236 236 235 234 234 234 233 232 231 230 229 228 227 225 224 224 223 223 222 221 219 218 218 219 219 218 218 217 215 212 210 209 208 208 207 206 205 205 204 203 204 206 208
265 263 260 258 257 255 253 252 250 249 247 245 244 243 243 242 242 243 243 244 243 241 240 239 238 236 236 235 234 234 234 234 233 232 231 230 229 228 227 226 225 224 223 222 222 220 219 219 219 219 219 219 218 217 215 212 210 209 208 208 206 205 205 205 204 205 206 208 210
273 269 266 263 261 259 256 253 251 250 249 247 246 244 243 243 243 243 244 243 242 242 241 240 238 237 236 236 235 234 233 233 233 232 232 231 230 229 228 226 225 224 223 222 221 220 219 219 219 219 219 219 218 216 214 212 209 208 207 207 206 205 205 205 206 206 208 210 211
277 273 269 266 263 260 258 255 253 252 250 249 248 247 245 245 244 244 243 242 242 242 242 241 239 238 237 236 236 234 233 232 232 232 231 231 230 229 228 227 225 224 223 222 221 220 219 219 219 219 218 217 216 215 213 211 208 207 206 206 206 206 206 207 207 208 209 211 212
280 275 272 269 265 262 259 257 255 254 253 251 251 250 248 247 246 244 243 242 242 243 242 241 240 238 238 237 236 235 234 232 231 231 230 230 230 229 228 227 226 224 223 222 222 221 220 219 219 218 217 216 215 214 213 211 209 207 206 206 206 207 208 209 209 210 210 211 212
283 279 275 272 268 265 262 259 258 256 255 254 253 252 251 250 248 246 244 243 243 243 242 241 240 239 238 238 237 236 235 233 231 230 229 229 228 228 227 226 225 224 223 222 221 221 221 220 219 218 217 216 215 214 213 211 210 209 208 208 208 209 210 211 211 211 211 211 212
288 284 280 276 272 268 265 263 261 260 258 257 256 255 253 251 250 248 246 244 243 243 242 241 240 240 239 238 237 236 235 233 231 230 229 228 227 226 226 225 225 224 223 222 221 221 221 221 220 219 217 216 215 214 213 212 211 211 211 211 211 212 212 213 213 212 212 212 212
295 290 286 281 277 273 270 267 265 263 262 261 260 258 256 254 252 250 247 246 244 243 242 241 241 240 239 238 237 235 233 232 231 229 228 228 227 226 225 225 224 224 223 222 221 221 221 221 220 219 218 217 216 215 214 214 213 213 213 213 213 214 214 214 214 214 213 213 214
305 300 294 289 284 280 276 273 271 268 267 266 264 262 259 257 254 252 250 248 246 244 243 243 242 241 240 239 237 235 232 231 230 229 229 228 228 227 226 226 225 224 223 222 222 221 221 220 220 219 218 218 217 217 216 215 215 214 214 214 215 215 216 216 216 215 215 214 215
315 310 305 299 294 289 285 282 278 275 272 270 268 266 263 260 257 255 253 251 249 247 245 244 243 242 240 239 237 236 233 232 231 230 230 229 229 228 227 227 226 225 224 223 222 222 221 220 219 219 218 218 217 217 217 216 216 216 216 216 216 216 217 217 217 217 217 216 216
322 318 313 307 302 297 293 289 286 282 279 276 272 269 266 264 261 258 255 253 252 250 248 246 244 242 241 239 238 236 235 233 233 232 231 231 230 229 228 227 226 225 224 224 223 222 221 220 219 219 218 218 217 217 217 217 217 217 217 217 217 218 218 218 218 218 218 218 218
325 323 320 315 309 302 297 293 290 287 284 280 276 273 270 267 264 261 259 257 255 252 250 247 245 243 242 240 238 237 236 235 234 233 233 232 231 230 229 228 227 226 225 224 223 222 221 220 219 219 219 218 218 217 217 217 217 217 218 218 218 219 219 220 219 219 219 219 219
326 326 326 323 318 311 303 297 292 289 286 283 280 277 273 270 267 264 263 261 258 254 251 249 247 245 243 241 239 238 238 237 236 235 234 233 232 232 231 229 228 226 225 224 223 222 221 220 220 220 219 219 219 218 218 217 217 217 218 218 219 220 220 220 220 220 220 220 220
326 326 326 325 324 320 314 307 299 292 287 284 281 279 276 273 270 268 265 262 259 256 253 250 248 247 245 243 242 240 239 238 237 236 235 234 233 232 231 229 227 226 225 224 223 222 221 220 220 220 220 220 219 219 218 218 217 217 217 218 219 219 220 220 221 221 221 221 221
325 324 324 323 323 322 319 315 308 300 293 287 283 280 278 275 273 270 267 263 260 257 254 252 250 248 247 245 244 242 240 238 237 236 235 234 233 232 230 229 227 226 225 225 224 223 222 221 220 220 220 220 220 220 219 218 218 217 217 217 218 218 219 220 221 221 221 221 221
323 322 321 320 320 320 319 317 313 307 301 295 289 284 280 277 274 271 268 264 261 258 256 253 252 250 247 246 244 242 241 239 237 235 234 233 232 231 230 228 227 227 226 226 224 223 222 222 221 220 220 220 220 219 219 218 218 218 217 217 217 217 218 219 220 221 221 222 221
321 320 318 318 317 317 316 315 314 311 307 302 296 290 284 280 276 273 269 266 262 260 257 255 252 250 247 245 244 242 240 238 237 235 234 232 231 230 229 228 227 227 227 226 224 222 221 220 220 220 220 219 219 218 218 218 218 218 217 217 217 217 217 218 219 220 221 222 222
320 318 317 317 315 314 313 314 313 311 309 306 301 295 290 285 280 275 270 267 264 262 259 255 252 249 246 245 243 241 239 238 236 235 233 232 231 230 229 228 228 228 227 226 224 222 221 221 220 219 218 218 218 217 216 217 217 217 217 217 217 217 217 218 218 219 221 222 223
319 318 317 316 314 313 313 312 311 309 308 306 302 298 294 289 283 277 273 269 266 263 259 255 252 249 246 243 241 240 239 238 236 235 233 232 232 230 230 229 229 229 229 227 224 223 223 223 222 220 218 217 217 217 216 216 216 216 216 217 217 218 218 218 219 219 220 221 222
319 318 316 314 313 312 312 311 309 308 307 305 302 299 294 289 284 279 275 272 268 263 259 256 253 249 245 242 241 240 239 238 237 235 234 232 232 231 231 230 230 230 229 227 225 224 224 224 223 221 218 216 215 216 216 215 215 215 215 217 217 218 218 218 219 219 219 220 221
318 316 315 313 312 312 311 310 308 307 306 304 301 297 293 288 284 280 277 273 269 265 261 257 253 249 245 243 242 240 239 238 236 235 233 232 232 231 231 231 231 230 229 227 225 225 225 225 225 223 220 217 215 214 214 215 215 215 215 216 217 217 217 218 218 218 218 219 220
316 315 313 312 311 310 310 309 308 306 304 302 299 295 291 287 283 281 278 275 272 268 264 259 254 250 247 245 243 241 239 238 236 234 233 232 232 232 232 231 231 231 230 227 226 226 226 226 226 225 222 219 216 213 213 214 215 215 216 216 217 217 217 217 218 218 218 219 219
313 313 312 310 309 309 309 309 307 305 303 300 296 293 290 286 284 282 280 277 274 270 265 259 254 250 248 246 243 241 239 238 236 234 233 233 232 233 232 232 232 231 230 228 227 228 228 227 226 226 224 222 219 216 213 213 215 216 216 217 218 218 217 217 219 219 218 219 217
311 311 310 308 307 307 307 306 305 303 301 298 294 291 289 287 286 284 281 277 273 268 263 258 254 250 247 245 242 241 240 238 237 236 235 234 233 233 233 234 233 232 231 229 228 228 228 228 227 226 225 223 222 218 214 211 212 214 215 217 218 218 218 217 217 218 218 217 217
310 310 308 306 305 304 304 303 303 301 299 296 293 291 289 287 285 283 280 277 273 268 263 259 255 251 249 246 244 242 241 239 238 237 235 235 234 234 234 234 234 232 231 229 229 229 229 229 228 227 226 225 224 221 216 211 211 212 213 215 217 218 218 218 218 218 218 217 217
309 308 307 305 304 302 302 301 300 299 297 294 292 291 289 287 284 281 280 278 274 269 264 260 257 253 251 248 245 243 242 240 239 238 237 236 235 235 235 235 234 233 231 230 230 229 229 229 228 228 227 226 225 223 218 212 210 210 211 213 215 217 218 219 219 219 219 218 217
308 308 306 304 303 301 300 299 298 296 295 293 292 291 290 288 285 283 280 277 273 268 263 260 257 253 250 247 245 243 242 241 240 240 238 237 236 235 234 234 234 233 232 230 230 230 229 229 229 228 227 226 226 225 220 214 209 208 210 213 214 215 217 217 218 219 219 218 218
308 307 306 304 302 301 300 298 297 295 294 293 292 292 292 290 287 285 281 277 271 266 263 260 255 251 248 246 245 244 243 242 240 239 239 238 236 235 235 235 234 232 231 230 230 230 230 229 228 227 226 225 226 225 222 215 209 207 208 210 213 215 215 216 217 218 219 219 219
307 307 305 304 302 301 300 299 297 295 294 293 293 294 293 292 290 286 282 276 270 265 263 260 255 251 249 247 246 246 244 242 241 239 239 238 237 236 235 235 234 233 231 230 230 230 230 230 229 227 226 225 225 225 222 216 211 208 207 207 210 212 213 215 216 217 219 219 220
307 306 305 303 302 301 300 299 298 296 295 295 295 295 295 294 292 288 284 277 270 265 262 259 256 253 251 249 247 246 245 243 242 240 238 238 237 237 237 236 235 233 231 229 229 230 231 230 229 228 226 225 224 224 222 218 211 208 206 206 208 209 211 213 213 215 217 220 221
306 305 304 302 301 301 300 299 298 297 296 296 295 295 296 295 294 291 287 280 272 266 261 259 258 256 253 250 247 246 245 244 242 240 239 238 237 237 238 237 237 235 232 230 229 230 231 231 231 229 227 226 224 223 222 218 211 207 206 205 205 206 208 209 211 213 215 219 221
305 304 303 302 301 300 299 298 298 298 297 296 295 295 295 295 295 293 289 283 275 268 263 260 258 256 253 249 246 245 245 244 243 241 239 238 237 237 238 238 238 236 233 230 229 229 230 231 231 230 228 226 225 223 221 218 211 205 204 203 203 204 205 207 209 211 213 216 218